Time,TemperatureF,DewpointF,PressureIn,WindDirection,WindDirectionDegrees,WindSpeedMPH,WindSpeedGustMPH,Humidity,HourlyPrecipIn,Conditions,Clouds,dailyrainin,SolarRadiationWatts/m^2,SoftwareType,DateUTC
2013-03-11 00:02:00,47.0,45.0,-100.00,NE,46,4.0,8.0,93,0.00,,,0.00,0.000000,,2013-03-11 07:02:00,
2013-03-11 00:11:00,47.0,45.0,-100.00,NE,46,4.0,8.0,93,0.00,,,0.00,0.000000,,2013-03-11 07:11:00,
2013-03-11 00:33:00,47.0,40.0,-100.00,NE,56,7.0,9.0,77,0.00,,,0.00,0.000000,,2013-03-11 07:33:00,
2013-03-11 00:42:00,47.0,40.0,-100.00,NE,56,7.0,9.0,77,0.00,,,0.00,0.000000,,2013-03-11 07:42:00,
2013-03-11 00:52:00,47.0,40.0,-100.00,NE,56,7.0,9.0,77,0.00,,,0.00,0.000000,,2013-03-11 07:52:00,
2013-03-11 01:02:00,47.0,40.0,-100.00,NE,56,7.0,9.0,77,0.00,,,0.00,0.000000,,2013-03-11 08:02:00,
2013-03-11 01:11:00,47.0,40.0,-100.00,NE,56,7.0,9.0,77,0.00,,,0.00,0.000000,,2013-03-11 08:11:00,
2013-03-11 01:42:00,46.0,38.0,-100.00,ENE,72,6.0,10.0,74,0.00,,,0.00,0.000000,,2013-03-11 08:42:00,
2013-03-11 01:52:00,46.0,38.0,-100.00,ENE,72,6.0,10.0,74,0.00,,,0.00,0.000000,,2013-03-11 08:52:00,
2013-03-11 02:02:00,46.0,38.0,-100.00,ENE,72,6.0,10.0,74,0.00,,,0.00,0.000000,,2013-03-11 09:02:00,
2013-03-11 02:12:00,46.0,38.0,-100.00,ENE,72,6.0,10.0,74,0.00,,,0.00,0.000000,,2013-03-11 09:12:00,
2013-03-11 02:32:00,46.0,41.0,-100.00,ENE,76,6.0,9.0,82,0.00,,,0.00,0.000000,,2013-03-11 09:32:00,
2013-03-11 02:42:00,46.0,41.0,-100.00,ENE,76,6.0,9.0,82,0.00,,,0.00,0.000000,,2013-03-11 09:42:00,
2013-03-11 02:52:00,46.0,41.0,-100.00,ENE,76,6.0,9.0,82,0.00,,,0.00,0.000000,,2013-03-11 09:52:00,
2013-03-11 03:02:00,46.0,41.0,-100.00,ENE,76,6.0,9.0,82,0.00,,,0.00,0.000000,,2013-03-11 10:02:00,
2013-03-11 03:11:00,46.0,41.0,-100.00,ENE,76,6.0,9.0,82,0.00,,,0.00,0.000000,,2013-03-11 10:11:00,
2013-03-11 03:33:00,45.0,41.0,-100.00,ENE,67,7.0,9.0,86,0.00,,,0.00,0.000000,,2013-03-11 10:33:00,
2013-03-11 03:42:00,45.0,41.0,-100.00,ENE,67,7.0,9.0,86,0.00,,,0.00,0.000000,,2013-03-11 10:42:00,
2013-03-11 03:52:00,45.0,41.0,-100.00,ENE,67,7.0,9.0,86,0.00,,,0.00,0.000000,,2013-03-11 10:52:00,
2013-03-11 04:02:00,45.0,41.0,-100.00,ENE,67,7.0,9.0,86,0.00,,,0.00,0.000000,,2013-03-11 11:02:00,
2013-03-11 04:11:00,45.0,41.0,-100.00,ENE,67,7.0,9.0,86,0.00,,,0.00,0.000000,,2013-03-11 11:11:00,
2013-03-11 04:33:00,44.0,41.0,-100.00,ENE,69,2.0,10.0,89,0.00,,,-99.99,0.000000,,2013-03-11 11:33:00,
2013-03-11 04:43:00,44.0,41.0,-100.00,ENE,69,2.0,10.0,89,0.00,,,-99.99,0.000000,,2013-03-11 11:43:00,
2013-03-11 04:53:00,44.0,41.0,-100.00,ENE,69,2.0,10.0,89,0.00,,,-99.99,0.000000,,2013-03-11 11:53:00,
2013-03-11 05:02:00,44.0,41.0,-100.00,ENE,69,2.0,10.0,89,0.00,,,-99.99,0.000000,,2013-03-11 12:02:00,
2013-03-11 05:11:00,44.0,41.0,-100.00,ENE,69,2.0,10.0,89,0.00,,,-99.99,0.000000,,2013-03-11 12:11:00,
2013-03-11 05:33:00,43.0,40.0,-100.00,ENE,58,3.0,6.0,89,0.00,,,-99.99,0.000000,,2013-03-11 12:33:00,
2013-03-11 05:43:00,43.0,40.0,-100.00,ENE,58,3.0,6.0,89,0.00,,,-99.99,0.000000,,2013-03-11 12:43:00,
2013-03-11 05:53:00,43.0,40.0,-100.00,ENE,58,3.0,6.0,89,0.00,,,-99.99,0.000000,,2013-03-11 12:53:00,
2013-03-11 06:02:00,43.0,40.0,-100.00,ENE,58,3.0,6.0,89,0.00,,,-99.99,0.000000,,2013-03-11 13:02:00,
2013-03-11 06:12:00,43.0,40.0,-100.00,ENE,58,3.0,6.0,89,0.00,,,-99.99,0.000000,,2013-03-11 13:12:00,
2013-03-11 06:33:00,43.0,40.0,-100.00,ENE,63,3.0,7.0,89,0.00,,,0.00,0.000000,,2013-03-11 13:33:00,
2013-03-11 06:43:00,43.0,40.0,-100.00,ENE,63,3.0,7.0,89,0.00,,,0.00,0.000000,,2013-03-11 13:43:00,
2013-03-11 06:52:00,43.0,40.0,-100.00,ENE,63,3.0,7.0,89,0.00,,,0.00,0.000000,,2013-03-11 13:52:00,
2013-03-11 07:02:00,43.0,40.0,-100.00,ENE,63,3.0,7.0,89,0.00,,,0.00,0.000000,,2013-03-11 14:02:00,
2013-03-11 07:11:00,43.0,40.0,-100.00,ENE,63,3.0,7.0,89,0.00,,,0.00,0.000000,,2013-03-11 14:11:00,
2013-03-11 07:43:00,41.0,38.0,-100.00,ENE,75,5.0,7.0,89,0.00,,,0.00,0.000000,,2013-03-11 14:43:00,
2013-03-11 07:53:00,41.0,38.0,-100.00,ENE,75,5.0,7.0,89,0.00,,,0.00,0.000000,,2013-03-11 14:53:00,
2013-03-11 08:02:00,41.0,38.0,-100.00,ENE,75,5.0,7.0,89,0.00,,,0.00,0.000000,,2013-03-11 15:02:00,
2013-03-11 08:12:00,41.0,38.0,-100.00,ENE,75,5.0,7.0,89,0.00,,,0.00,0.000000,,2013-03-11 15:12:00,
2013-03-11 08:32:00,44.0,41.0,-100.00,ENE,74,5.0,7.0,90,0.00,,,0.00,26.000000,,2013-03-11 15:32:00,
2013-03-11 08:43:00,44.0,41.0,-100.00,ENE,74,5.0,7.0,90,0.00,,,0.00,26.000000,,2013-03-11 15:43:00,
2013-03-11 08:53:00,44.0,41.0,-100.00,ENE,74,5.0,7.0,90,0.00,,,0.00,26.000000,,2013-03-11 15:53:00,
2013-03-11 09:02:00,44.0,41.0,-100.00,ENE,74,5.0,7.0,90,0.00,,,0.00,26.000000,,2013-03-11 16:02:00,
2013-03-11 09:12:00,44.0,41.0,-100.00,ENE,74,5.0,7.0,90,0.00,,,0.00,26.000000,,2013-03-11 16:12:00,
2013-03-11 09:13:00,55.0,45.0,-100.00,SSE,155,1.0,7.0,70,0.00,,,0.00,274.000000,,2013-03-11 16:13:00,
2013-03-11 09:32:00,55.0,45.0,-100.00,SSE,155,1.0,7.0,70,0.00,,,0.00,274.000000,,2013-03-11 16:32:00,
2013-03-11 10:02:00,55.0,45.0,-100.00,SSE,155,1.0,7.0,70,0.00,,,0.00,274.000000,,2013-03-11 17:02:00,
2013-03-11 10:42:00,59.0,44.0,-100.00,SW,216,3.0,6.0,58,0.00,,,-99.99,474.000000,,2013-03-11 17:42:00,
2013-03-11 10:53:00,59.0,44.0,-100.00,SW,216,3.0,6.0,58,0.00,,,-99.99,474.000000,,2013-03-11 17:53:00,
2013-03-11 11:02:00,59.0,44.0,-100.00,SW,216,3.0,6.0,58,0.00,,,-99.99,474.000000,,2013-03-11 18:02:00,
2013-03-11 11:11:00,59.0,44.0,-100.00,SW,216,3.0,6.0,58,0.00,,,-99.99,474.000000,,2013-03-11 18:11:00,
2013-03-11 11:33:00,60.0,47.0,-100.00,SW,234,4.0,7.0,61,0.00,,,0.00,639.000000,,2013-03-11 18:33:00,
2013-03-11 11:42:00,60.0,47.0,-100.00,SW,234,4.0,7.0,61,0.00,,,0.00,639.000000,,2013-03-11 18:42:00,
2013-03-11 11:53:00,60.0,47.0,-100.00,SW,234,4.0,7.0,61,0.00,,,0.00,639.000000,,2013-03-11 18:53:00,
2013-03-11 12:02:00,60.0,47.0,-100.00,SW,234,4.0,7.0,61,0.00,,,0.00,639.000000,,2013-03-11 19:02:00,
2013-03-11 12:12:00,60.0,47.0,-100.00,SW,234,4.0,7.0,61,0.00,,,0.00,639.000000,,2013-03-11 19:12:00,
2013-03-11 12:43:00,62.0,48.0,-100.00,WSW,248,4.0,9.0,61,0.00,,,0.00,750.000000,,2013-03-11 19:43:00,
2013-03-11 12:52:00,62.0,48.0,-100.00,WSW,248,4.0,9.0,61,0.00,,,0.00,750.000000,,2013-03-11 19:52:00,
2013-03-11 13:02:00,62.0,48.0,-100.00,WSW,248,4.0,9.0,61,0.00,,,0.00,750.000000,,2013-03-11 20:02:00,
2013-03-11 13:11:00,62.0,48.0,-100.00,WSW,248,4.0,9.0,61,0.00,,,0.00,750.000000,,2013-03-11 20:11:00,
2013-03-11 13:33:00,63.0,48.0,-100.00,West,269,5.0,10.0,58,0.00,,,0.00,801.000000,,2013-03-11 20:33:00,
2013-03-11 13:44:00,63.0,48.0,-100.00,West,269,5.0,10.0,58,0.00,,,0.00,801.000000,,2013-03-11 20:44:00,
2013-03-11 13:53:00,63.0,48.0,-100.00,West,269,5.0,10.0,58,0.00,,,0.00,801.000000,,2013-03-11 20:53:00,
2013-03-11 14:02:00,63.0,48.0,-100.00,West,269,5.0,10.0,58,0.00,,,0.00,801.000000,,2013-03-11 21:02:00,
2013-03-11 14:12:00,63.0,48.0,-100.00,West,269,5.0,10.0,58,0.00,,,0.00,801.000000,,2013-03-11 21:12:00,
2013-03-11 14:33:00,65.0,50.0,-100.00,WNW,288,5.0,9.0,58,0.00,,,0.00,787.000000,,2013-03-11 21:33:00,
2013-03-11 14:44:00,65.0,50.0,-100.00,WNW,288,5.0,9.0,58,0.00,,,0.00,787.000000,,2013-03-11 21:44:00,
2013-03-11 14:53:00,65.0,50.0,-100.00,WNW,288,5.0,9.0,58,0.00,,,0.00,787.000000,,2013-03-11 21:53:00,
2013-03-11 15:02:00,65.0,50.0,-100.00,WNW,288,5.0,9.0,58,0.00,,,0.00,787.000000,,2013-03-11 22:02:00,
2013-03-11 15:12:00,65.0,50.0,-100.00,WNW,288,5.0,9.0,58,0.00,,,0.00,787.000000,,2013-03-11 22:12:00,
2013-03-11 15:33:00,66.0,51.0,-100.00,NW,318,4.0,10.0,58,0.00,,,0.00,707.000000,,2013-03-11 22:33:00,
2013-03-11 15:43:00,66.0,51.0,-100.00,NW,318,4.0,10.0,58,0.00,,,0.00,707.000000,,2013-03-11 22:43:00,
2013-03-11 15:53:00,66.0,51.0,-100.00,NW,318,4.0,10.0,58,0.00,,,0.00,707.000000,,2013-03-11 22:53:00,
2013-03-11 16:02:00,66.0,51.0,-100.00,NW,318,4.0,10.0,58,0.00,,,0.00,707.000000,,2013-03-11 23:02:00,
2013-03-11 16:33:00,66.0,50.0,-100.00,West,269,5.0,9.0,57,0.00,,,0.00,570.000000,,2013-03-11 23:33:00,
2013-03-11 16:43:00,66.0,50.0,-100.00,West,269,5.0,9.0,57,0.00,,,0.00,570.000000,,2013-03-11 23:43:00,
2013-03-11 16:53:00,66.0,50.0,-100.00,West,269,5.0,9.0,57,0.00,,,0.00,570.000000,,2013-03-11 23:53:00,
2013-03-11 17:02:00,66.0,50.0,-100.00,West,269,5.0,9.0,57,0.00,,,0.00,570.000000,,2013-03-12 00:02:00,
2013-03-11 17:12:00,66.0,50.0,-100.00,West,269,5.0,9.0,57,0.00,,,0.00,570.000000,,2013-03-12 00:12:00,
2013-03-11 17:33:00,66.0,51.0,-100.00,NW,307,3.0,9.0,58,0.00,,,0.00,382.000000,,2013-03-12 00:33:00,
2013-03-11 17:43:00,66.0,51.0,-100.00,NW,307,3.0,9.0,58,0.00,,,0.00,382.000000,,2013-03-12 00:43:00,
2013-03-11 17:53:00,66.0,51.0,-100.00,NW,307,3.0,9.0,58,0.00,,,0.00,382.000000,,2013-03-12 00:53:00,
2013-03-11 18:02:00,66.0,51.0,-100.00,NW,307,3.0,9.0,58,0.00,,,0.00,382.000000,,2013-03-12 01:02:00,
2013-03-11 18:11:00,66.0,51.0,-100.00,NW,307,3.0,9.0,58,0.00,,,0.00,382.000000,,2013-03-12 01:11:00,
2013-03-11 18:33:00,62.0,48.0,-100.00,WNW,295,3.0,7.0,60,0.00,,,0.00,152.000000,,2013-03-12 01:33:00,
2013-03-11 18:42:00,62.0,48.0,-100.00,WNW,295,3.0,7.0,60,0.00,,,0.00,152.000000,,2013-03-12 01:42:00,
2013-03-11 18:52:00,62.0,48.0,-100.00,WNW,295,3.0,7.0,60,0.00,,,0.00,152.000000,,2013-03-12 01:52:00,
2013-03-11 19:02:00,62.0,48.0,-100.00,WNW,295,3.0,7.0,60,0.00,,,0.00,152.000000,,2013-03-12 02:02:00,
2013-03-11 19:12:00,62.0,48.0,-100.00,WNW,295,3.0,7.0,60,0.00,,,0.00,152.000000,,2013-03-12 02:12:00,
2013-03-11 19:32:00,58.0,48.0,-100.00,NE,35,2.0,5.0,70,0.00,,,0.00,25.000000,,2013-03-12 02:32:00,
2013-03-11 19:43:00,58.0,48.0,-100.00,NE,35,2.0,5.0,70,0.00,,,0.00,25.000000,,2013-03-12 02:43:00,
2013-03-11 19:52:00,58.0,48.0,-100.00,NE,35,2.0,5.0,70,0.00,,,0.00,25.000000,,2013-03-12 02:52:00,
2013-03-11 20:02:00,58.0,48.0,-100.00,NE,35,2.0,5.0,70,0.00,,,0.00,25.000000,,2013-03-12 03:02:00,
2013-03-11 20:12:00,58.0,48.0,-100.00,NE,35,2.0,5.0,70,0.00,,,0.00,25.000000,,2013-03-12 03:12:00,
2013-03-11 20:42:00,52.0,49.0,-100.00,ENE,65,5.0,8.0,89,0.00,,,0.00,0.000000,,2013-03-12 03:42:00,
2013-03-11 20:52:00,52.0,49.0,-100.00,ENE,65,5.0,8.0,89,0.00,,,0.00,0.000000,,2013-03-12 03:52:00,
2013-03-11 21:02:00,52.0,49.0,-100.00,ENE,65,5.0,8.0,89,0.00,,,0.00,0.000000,,2013-03-12 04:02:00,
2013-03-11 21:12:00,52.0,49.0,-100.00,ENE,65,5.0,8.0,89,0.00,,,0.00,0.000000,,2013-03-12 04:12:00,
2013-03-11 21:32:00,51.0,48.0,-100.00,ENE,66,2.0,8.0,89,0.00,,,0.00,0.000000,,2013-03-12 04:32:00,
2013-03-11 21:43:00,51.0,48.0,-100.00,ENE,66,2.0,8.0,89,0.00,,,0.00,0.000000,,2013-03-12 04:43:00,
2013-03-11 21:52:00,51.0,48.0,-100.00,ENE,66,2.0,8.0,89,0.00,,,0.00,0.000000,,2013-03-12 04:52:00,
2013-03-11 22:02:00,51.0,48.0,-100.00,ENE,66,2.0,8.0,89,0.00,,,0.00,0.000000,,2013-03-12 05:02:00,
2013-03-11 22:11:00,51.0,48.0,-100.00,ENE,66,2.0,8.0,89,0.00,,,0.00,0.000000,,2013-03-12 05:11:00,
2013-03-11 22:32:00,49.0,48.0,-100.00,ENE,62,5.0,7.0,97,0.00,,,0.00,0.000000,,2013-03-12 05:32:00,
2013-03-11 22:42:00,49.0,48.0,-100.00,ENE,62,5.0,7.0,97,0.00,,,0.00,0.000000,,2013-03-12 05:42:00,
2013-03-11 22:52:00,49.0,48.0,-100.00,ENE,62,5.0,7.0,97,0.00,,,0.00,0.000000,,2013-03-12 05:52:00,
2013-03-11 23:02:00,49.0,48.0,-100.00,ENE,62,5.0,7.0,97,0.00,,,0.00,0.000000,,2013-03-12 06:02:00,
2013-03-11 23:11:00,49.0,48.0,-100.00,ENE,62,5.0,7.0,97,0.00,,,0.00,0.000000,,2013-03-12 06:11:00,
2013-03-11 23:32:00,50.0,49.0,-100.00,ENE,73,6.0,8.0,95,0.00,,,0.00,0.000000,,2013-03-12 06:32:00,
2013-03-11 23:42:00,50.0,49.0,-100.00,ENE,73,6.0,8.0,95,0.00,,,0.00,0.000000,,2013-03-12 06:42:00,
2013-03-11 23:52:00,50.0,49.0,-100.00,ENE,73,6.0,8.0,95,0.00,,,0.00,0.000000,,2013-03-12 06:52:00,